Home   Weather   Timișoara   Past weeks

Flag for Romania Past Weather in Timișoara, Romania — Yesterday and Last 2 Weeks

Now
41 °F

Quite cool.


Feels Like: 36 °F
Forecast: 34 / 45 °F
Wind: 8 mph from South

Location: Timisoara Airport

Current Time: Feb 24, 2017 at 3:22:03 am

Latest Report: Feb 24, 2017 at 2:30 am


Visibility: 4 mi

Pressure: 29.77 "Hg

Humidity: 87%

Dew Point: 37 °F

Location of TimișoaraLocation

Past Weather in Timișoara — Graph

°F

Timișoara Temperature Yesterday

Maximum temperature yesterday: 63 °F (at 3:30 pm)
Minimum temperature yesterday: 34 °F (at 2:00 am)
Average temperature yesterday: 47 °F

High & Low Weather Summary for the Past Weeks

 TemperatureHumidityPressure
High63 °F (Feb 23, 3:30 pm)93% (Feb 9, 2:00 am)30.66 "Hg (Feb 9, 2:00 am)
Low23 °F (Feb 12, 7:30 am)39% (Feb 23, 5:00 pm)29.74 "Hg (Feb 24, 12:00 am)
Average34 °F85%30.31 "Hg
* Reported Feb 9 2:00 am — Feb 24 2:00 am, Timișoara, Weather by CustomWeather, © 2017

Note: Actual official high and low records may vary slightly from our data, if they occured in-between our weather recording intervals... More about our weather records

Advertising

Timișoara Weather History for the Previous 24 Hours

Scroll right to see more
 ConditionsComfort  
Time TempWeatherWind HumidityBarometerVisibility
2:00 am
Fri, Feb 24
37 °FChilly.6 mph93%29.74 "Hg4 mi
1:30 am39 °FClear.3 mph87%29.74 "Hg10 mi
1:00 am39 °FClear.5 mph87%29.74 "Hg10 mi
12:30 am41 °FPassing clouds.5 mph87%29.74 "HgN/A
12:00 am45 °FClear.7 mph76%29.74 "Hg10 mi
11:30 pm
Thu, Feb 23
43 °FClear.8 mph81%29.77 "Hg10 mi
11:00 pm41 °FClear.5 mph81%29.77 "Hg10 mi
10:30 pm45 °FClear.6 mph76%29.77 "Hg10 mi
10:00 pm46 °FClear.2 mph71%29.77 "Hg10 mi
9:30 pm45 °FClear.6 mph76%29.77 "Hg10 mi
9:00 pm46 °FClear.7 mph71%29.77 "Hg10 mi
8:30 pm48 °FClear.6 mph66%29.77 "Hg10 mi
8:00 pm50 °FClear.6 mph62%29.80 "Hg10 mi
7:30 pm50 °FClear.7 mph62%29.80 "Hg10 mi
7:00 pm52 °FClear.7 mph58%29.80 "Hg10 mi
6:30 pm55 °FClear.7 mph51%29.80 "Hg10 mi
6:00 pm59 °FSunny.8 mph45%29.80 "Hg10 mi
5:30 pm61 °FSunny.9 mph45%29.80 "Hg10 mi
5:00 pm63 °FSunny.9 mph39%29.80 "Hg10 mi
4:30 pm63 °FPassing clouds.8 mph42%29.83 "HgN/A
4:00 pm63 °FPassing clouds.9 mph42%29.83 "HgN/A
3:30 pm63 °FSunny.12 mph42%29.83 "Hg10 mi
3:00 pm61 °FSunny.12 mph45%29.86 "Hg10 mi
2:30 pm59 °FPassing clouds.10 mph48%29.86 "HgN/A
2:00 pm59 °FPassing clouds.12 mph48%29.89 "HgN/A
1:30 pm59 °FPassing clouds.10 mph48%29.89 "HgN/A
1:00 pm57 °FSunny.14 mph51%29.89 "Hg10 mi
12:30 pm57 °FSunny.13 mph48%29.89 "Hg10 mi
12:00 pm54 °FSunny.12 mph58%29.89 "Hg10 mi
11:30 am50 °FSunny.9 mph67%29.92 "Hg10 mi
11:00 am48 °FSunny.9 mph66%29.89 "Hg10 mi
10:30 am48 °FSunny.9 mph66%29.89 "Hg10 mi
10:00 am46 °FSunny.9 mph71%29.89 "Hg10 mi
9:30 am45 °FSunny.8 mph76%29.89 "Hg10 mi
9:00 am43 °FSunny.6 mph81%29.89 "Hg10 mi
8:30 am43 °FSunny.7 mph81%29.89 "Hg10 mi
8:00 am41 °FClear.7 mph87%29.86 "Hg5 mi
7:30 am41 °FClear.1 mph87%29.89 "Hg5 mi
7:00 am39 °FClear.8 mph93%29.86 "Hg10 mi
6:30 am39 °FClear.9 mph93%29.86 "Hg10 mi
6:00 am39 °FClear.9 mph93%29.86 "Hg10 mi
5:30 am39 °FClear.8 mph93%29.86 "Hg10 mi
5:00 am36 °FPassing clouds.3 mph93%29.86 "HgN/A
4:30 am37 °FPassing clouds.3 mph87%29.86 "HgN/A
4:00 am34 °FClear.3 mph93%29.86 "Hg10 mi
3:30 am34 °FClear.5 mph93%29.86 "Hg10 mi
3:00 am34 °FClear.6 mph93%29.86 "Hg10 mi
Weather by CustomWeather, © 2017

See weather overviewHow to use our weather pages